Location: Ffald-y-Brenin
(52.0833°N, 4.0000°W)
Time: 02:47:33
(UTC+00:00)

Cosmos 2369 Rocket - Pass Details

Date: 18 February 2020
Orbit: 827 x 854 km, 71.0° (Epoch: 09 April)

Event Time Altitude Azimuth Distance (km) Brightness Sun altitude
Exits shadow 06:17:07 - 319° (NW) 2,997 4.6 -11.3°
Reaches altitude 10° 06:18:39 10° 312° (NW) 2,493 4.2 -11.0°
Maximum altitude 06:23:23 27° 256° (WSW) 1,574 3.1 -10.3°
Drops below altitude 10° 06:28:05 10° 200° (SSW) 2,479 4.5 -9.6°
Sets 06:30:51 0° 189° (S) 3,409 5.3 -9.2°
